Notices

What's New in latest Release from April 7th, 2021:

- Updated Glossary, including Speed of Maximum Gust, and Total Hourly Precipitation

- Updated national and regional climate services offices contacts and prices information

- Addition of station inventory lists for 1981-2010, 1971-2000, and 1961-1990 Normals.

If you haven't already, please take our survey and provide feedback about our website: https://eccc.sondage-survey.ca/f/LanguageSelection.aspx?s=442ca660-fcf1-47c0-95a9-59707d6fd709

Hourly Data Report for November 06, 2019

SHEARWATER RCS
NOVA SCOTIA
Current Station Operator: ECCC - MSC

44°37'47.000" N
63°30'48.000" W
24.00 m
8205092
71264
AAW

Download Data

Hourly Data (November 2019)
Hourly Data Report for November 6, 2019
TIME
LST
Temp Definition
°C
Dew Point Definition
°C
Rel Hum Definition
%
Precip. Amount Definition
mm

Wind Dir Definition
10's deg

Wind Spd Definition
km/h
Visibility Definition
km
Stn Press Definition
kPa
Hmdx Definition


Wind Chill Definition


Weather Definition


00:00 12.6 11.1 91 0.0 16 22   101.62     LegendNANA
01:00 12.6 11.6 93 2.6 16 26   101.48     LegendNANA
02:00 13.1 12.4 96 6.4 18 27   101.35     LegendNANA
03:00 13.7 13.1 96 10.8 20 27   101.28     LegendNANA
04:00 14.1 13.5 96 8.9 21 22   101.12     LegendNANA
05:00 13.7 13.0 95 0.3 21 25   101.06     LegendNANA
06:00 13.9 13.1 95 0.0 22 25   101.00     LegendNANA
07:00 13.1 12.1 94 0.0 26 13   101.01     LegendNANA
08:00 12.7 11.5 92 0.0 27 13   101.12     LegendNANA
09:00 12.0 9.3 83 0.0 28 14   101.24     LegendNANA
10:00 12.3 8.1 76 0.0 27 15   101.30     LegendNANA
11:00 12.2 5.8 65 0.0 28 16   101.36     LegendNANA
12:00 10.6 3.5 61 0.0 29 24   101.42     LegendNANA
13:00 10.4 0.0 48 0.0 28 24   101.49     LegendNANA
14:00 10.7 -1.2 44 0.0 27 19   101.47     LegendNANA
15:00 9.6 -2.9 41 0.0 27 20   101.56     LegendNANA
16:00 8.8 -3.9 40 0.0 28 20   101.67     LegendNANA
17:00 7.9 -4.1 42 0.0 28 18   101.77     LegendNANA
18:00 7.1 -2.3 51 0.0 27 13   101.86     LegendNANA
19:00 6.9 -2.3 52 0.0 27 14   101.95     LegendNANA
20:00 6.3 -1.3 58 0.0 26 11   102.01     LegendNANA
21:00 5.8 -2.3 56 0.0 30 17   102.13     LegendNANA
22:00 5.0 -2.8 57 0.0 29 14   102.21     LegendNANA
23:00 4.3 -3.5 57 0.0 29 13   102.26     LegendNANA

Notes on Data Quality.

Legend

  • E = Estimated
  • M = Missing
  • NA = Not Available*
  • [empty] = Indicates an unobserved value
Date modified: